Location: NJAA Observatory
(40.6819°N, 74.8979°W)
Time: 20:10:07
(UTC-04:00)

Vanguard 1 - All Passes

Search period start: 01 April 2015 00:00
Search period end: 11 April 2015 00:00
Orbit: 653 x 3833 km, 34.2° (Epoch: 30 March)

Date Brightness Start Highest point End Pass type
(mag) Time Alt. Az. Time Alt. Az. Time Alt. Az.
01 Apr - 14:36:31 10° SW 14:40:23 28° SSE 14:44:23 10° ESE daylight
01 Apr - 16:55:31 10° WSW 16:59:52 42° S 17:05:59 10° ESE daylight
01 Apr - 19:14:56 10° WSW 19:20:07 29° SSW 19:28:01 10° SE daylight
01 Apr - 21:37:56 10° SW 21:41:45 12° SSW 21:45:48 10° S visible
02 Apr - 12:39:41 10° S 12:41:56 13° SSE 12:44:05 10° SE daylight
02 Apr - 14:57:27 10° SW 15:01:30 33° S 15:05:50 10° ESE daylight
02 Apr - 17:16:42 10° WSW 17:21:06 39° S 17:27:19 10° ESE daylight
02 Apr - 19:36:35 10° WSW 19:41:30 23° SSW 19:48:34 10° SSE visible
03 Apr - 12:59:33 10° SSW 13:03:08 18° SSE 13:06:18 10° ESE daylight
03 Apr - 15:18:31 10° WSW 15:22:39 38° S 15:27:13 10° ESE daylight
03 Apr - 17:37:58 10° WSW 17:42:20 34° S 17:48:31 10° SE daylight
03 Apr - 19:58:38 10° WSW 20:02:56 17° SSW 20:08:30 10° SSE visible
04 Apr - 13:20:05 10° SW 13:24:19 24° SSE 13:27:57 10° ESE daylight
04 Apr - 15:39:41 10° WSW 15:43:49 39° S 15:48:32 10° ESE daylight
04 Apr - 17:59:21 10° WSW 18:03:35 28° SSW 18:09:29 10° SE daylight
04 Apr - 20:21:51 10° SW 20:24:26 12° SSW 20:27:04 10° S visible
05 Apr - 11:22:45 10° S 11:25:29 13° SSE 11:27:57 10° SE daylight
05 Apr - 13:40:58 10° SW 13:45:30 30° SSE 13:49:24 10° ESE daylight
05 Apr - 16:00:54 10° WSW 16:05:00 37° S 16:09:48 10° ESE daylight
05 Apr - 18:20:54 10° WSW 18:24:52 22° SSW 18:30:08 10° SSE daylight
06 Apr - 11:42:21 10° SSW 11:46:48 18° SSE 11:50:21 10° ESE daylight
06 Apr - 14:02:03 10° WSW 14:06:40 35° S 14:10:44 10° ESE daylight
06 Apr - 16:22:10 10° WSW 16:26:11 33° S 16:30:57 10° SE daylight
06 Apr - 18:42:51 10° WSW 18:46:11 16° SSW 18:50:15 10° SSE daylight
07 Apr - 12:02:45 10° SW 12:08:05 24° SSE 12:12:04 10° ESE daylight
07 Apr - 14:23:14 10° WSW 14:27:50 38° S 14:31:59 10° ESE daylight
07 Apr - 16:43:32 10° WSW 16:47:22 27° SSW 16:51:56 10° SE daylight
07 Apr - 19:06:08 10° SW 19:07:33 11° SSW 19:08:52 10° S daylight
08 Apr - 10:04:46 10° S 10:08:43 14° SSE 10:12:07 10° SE daylight
08 Apr - 12:23:35 10° SW 12:29:20 30° SSE 12:33:31 10° ESE daylight
08 Apr - 14:44:30 10° WSW 14:49:00 38° S 14:53:11 10° ESE daylight
08 Apr - 17:05:03 10° WSW 17:08:32 21° SSW 17:12:40 10° SSE daylight
09 Apr - 10:24:10 10° SSW 10:30:09 19° SSE 10:34:35 10° ESE daylight
09 Apr - 12:44:39 10° WSW 12:50:32 36° S 12:54:49 10° ESE daylight
09 Apr - 15:05:49 10° WSW 15:10:09 35° S 15:14:18 10° ESE daylight
09 Apr - 17:26:53 10° WSW 17:29:44 16° SSW 17:32:56 10° SSE daylight
10 Apr - 10:44:25 10° SSW 10:51:31 25° SSE 10:56:23 10° ESE daylight
10 Apr - 13:05:53 10° WSW 13:11:45 40° S 13:16:03 10° ESE daylight
10 Apr - 15:27:12 10° WSW 15:31:16 30° SSW 15:35:18 10° SE daylight
10 Apr - 17:49:59 10° SW 17:50:57 10° SSW 17:51:49 10° SSW daylight
